sat.trackr.live / text

‹ back to catalog

ZORKIY-2M 1

NORAD 57177 · 2023-091M

PAYLOAD ACTIVE UNKNOWN

§ Identity

Operator
Country
CIS
Launch date
2023-06-27
Launch site
VOSTO
Launch vehicle
Mass (kg)
RCS (m²)

External: N2YO · Heavens-Above · Gunter

§ Orbital elements

Epoch: 2026-05-25T04:22:10.333920Z

Period
94.70 min
Inclination
97.5105°
Eccentricity
0.0013254
Mean motion
15.20550802 rev/d
Perigee alt
495.1 km
Apogee alt
513.3 km
Semi-major
6,882.3 km
B*
3.0849e-4
RAAN
204.2246°
Arg perigee
189.8491°
Mean anomaly
170.2486°
Rev number
16,050

§ Raw data

ZORKIY-2M 11 57177U 23091M   26145.18206405  .00006698  00000+0  30849-3 0  99912 57177  97.5105 204.2246 0013254 189.8491 170.2486 15.20550802160509

JSON: /api/v1/satellites/57177 · /tle

For live sub-satellite position, see the globe view (requires WebGL).

§ Visibility from observer

Set your observer location to see the next 7 days of passes ≥ 10°. The values pass through the URL so the page stays shareable.

No JS? Fill the form by hand. The geolocation button needs JavaScript.

§ Radio — SatNOGS DB

ModeDescriptionDownlinkUplink
GMSK USP Mode U - FSK USP 2k4 TLM AX.25 401.950 MHz
GMSK USP Mode U - FSK USP 2k4 TLM AX.25 401.480 MHz

2 transmitters · refreshed weekly from db.satnogs.org